Location: Ostrava
(49.8330°N, 18.2830°E)
Time: 06:14:28
(UTC+02:00)

Iridium 7 - Visible Passes

Search period start: 26 April 2017 00:00
Search period end: 06 May 2017 00:00
Orbit: 776 x 779 km, 86.4° (Epoch: 24 April)

Date Brightness Start Highest point End Pass type
(mag) Time Alt. Az. Time Alt. Az. Time Alt. Az.
26 Apr 7.7 21:59:33 10° NNW 22:03:39 24° W 22:07:44 10° SW visible
27 Apr 6.9 21:25:31 10° NNW 21:30:21 39° W 21:35:11 10° SSW visible
28 Apr 6.0 20:51:45 10° N 20:56:57 67° W 21:02:07 10° S visible
28 Apr 8.6 22:36:00 10° WNW 22:36:37 10° WNW 22:37:15 10° WNW visible
29 Apr 8.2 22:00:09 10° NW 22:03:32 18° WNW 22:06:55 10° WSW visible
30 Apr 7.5 21:25:52 10° NNW 21:30:19 29° W 21:34:45 10° SW visible
01 May 6.6 20:51:57 10° NNW 20:56:59 48° W 21:01:58 10° SSW visible
02 May 8.4 22:01:06 10° NW 22:03:22 13° WNW 22:05:37 10° W visible
03 May 8.1 21:26:20 10° NNW 21:30:13 22° WNW 21:34:06 10° SW visible
04 May 7.3 20:52:14 10° NNW 20:56:57 35° W 21:01:39 10° SSW visible
